Probability
0 0 0 0 0 0 0 0 0 0 3 0 0 0 6 13 13 6 6 3 10 10 10 6 13 16 23 23 19 19 16 19 10 13 13 13 10 13 16 10 6 6 10 10
0 0 0 0 0 0 0 0 0 0 3 6 3 3 6 13 10 10 3 6 16 10 13 13 13 13 19 23 23 19 16 19 13 10 13 13 10 10 10 10 10 6 13 10
0 0 0 0 0 0 0 0 0 0 0 0 0 0 3 6 16 16 19 13 16 16 10 13 6 10 16 19 23 19 19 19 16 13 13 13 13 16 13 10 10 10 13 13
0 0 0 0 0 0 0 0 0 0 0 0 0 0 0 6 16 13 13 13 13 16 13 10 10 3 13 19 26 19 16 19 19 19 23 23 23 23 16 16 16 16 19 19
0 0 0 0 0 0 0 0 0 0 0 0 0 0 0 3 6 10 13 19 10 19 13 10 6 10 13 19 19 23 23 32 32 26 19 16 16 13 10 13 13 13 13 10
0 0 0 0 0 0 0 0 0 0 0 0 0 0 0 3 3 0 16 16 16 16 16 10 13 16 16 19 19 23 26 32 32 29 26 16 16 16 16 16 13 13 16 10
0 0 0 0 0 0 0 0 0 0 0 0 0 0 0 0 0 6 19 13 13 13 16 10 6 16 13 23 23 29 29 29 29 29 26 23 16 13 19 19 16 16 16 16
0 0 0 0 0 0 0 0 0 0 0 0 0 0 3 3 0 0 3 6 10 10 16 10 10 13 13 23 26 26 26 26 26 26 26 23 19 19 23 23 26 19 13 13
0 0 0 0 0 0 0 0 0 0 0 0 0 0 0 3 0 0 3 6 10 13 16 16 13 16 16 26 26 29 26 29 29 23 23 23 19 23 26 23 23 23 19 23
0 0 0 0 0 0 0 0 0 0 0 0 0 0 3 0 0 0 3 6 10 19 13 16 16 26 26 32 29 26 29 32 32 26 29 29 23 23 26 23 16 19 23 26
0 0 0 0 0 0 0 0 0 0 0 0 0 0 0 0 3 0 0 10 16 23 13 16 16 26 23 26 26 23 26 26 26 29 32 32 29 19 23 19 19 19 16 16
0 0 0 0 0 0 0 0 0 0 0 0 0 0 0 0 3 0 3 13 16 13 16 16 16 16 16 23 29 29 32 32 29 29 29 29 26 26 23 19 19 23 23 19
0 0 0 0 0 0 0 0 0 0 0 0 0 0 0 0 0 0 3 10 10 6 10 16 16 19 13 19 29 29 29 32 29 29 29 26 23 23 26 26 26 19 19 19
0 0 0 0 0 0 0 0 0 0 0 0 0 0 0 3 0 0 0 3 3 3 10 6 10 13 19 19 23 29 32 26 32 29 32 29 29 23 26 23 23 19 19 26
0 0 0 0 0 0 0 0 0 0 0 0 0 0 0 0 0 0 0 0 6 10 13 13 10 13 16 13 16 26 29 26 29 29 26 26 19 23 19 19 19 19 19 23
0 0 0 0 0 0 0 0 0 0 0 0 0 0 0 0 0 3 3 3 6 16 13 16 16 16 13 16 13 19 23 29 29 26 26 19 19 13 10 13 16 16 19 19
0 0 0 0 0 0 0 0 0 0 3 3 0 0 0 3 3 10 13 16 19 19 13 16 16 16 19 19 16 13 19 26 26 23 23 10 10 10 10 16 13 16 16 13
0 0 0 0 0 0 0 0 0 0 3 0 0 0 3 3 3 6 10 16 16 19 13 19 13 19 16 23 23 23 23 19 19 19 13 13 10 10 10 10 13 13 13 13
0 0 0 0 0 0 0 3 3 6 6 3 0 3 6 3 3 6 10 13 13 16 10 10 16 23 26 32 32 29 29 26 26 19 16 10 10 16 16 16 13 13 13 13
0 0 0 0 0 0 0 0 3 3 3 0 0 6 10 3 3 3 3 6 13 19 16 19 16 26 26 32 23 23 29 26 23 19 16 16 10 13 16 16 16 13 13 13
0 0 0 0 0 0 0 6 3 3 3 0 0 0 3 0 3 6 10 13 19 19 16 26 23 23 26 26 26 26 26 26 23 23 23 19 19 16 13 13 16 13 13 10
0 0 0 0 0 0 0 3 0 0 3 3 0 0 0 3 6 13 19 19 23 19 23 19 19 16 16 19 19 23 23 23 19 19 23 19 19 16 19 13 13 6 6 6
0 0 0 0 0 0 0 0 0 3 0 3 0 0 3 10 16 16 19 19 23 23 19 19 23 19 19 19 23 23 23 19 19 19 19 16 19 19 13 13 13 13 10 6
0 0 3 3 3 3 6 6 6 3 3 3 0 0 10 10 10 16 19 19 19 23 23 26 23 16 16 19 23 16 23 23 19 19 19 16 16 16 16 13 10 10 10 6
0 3 3 3 3 3 6 6 6 3 3 3 3 6 10 13 10 6 10 13 19 23 23 23 19 19 19 16 13 16 19 16 16 19 16 16 16 13 13 6 6 10 10 10
3 3 3 0 0 0 0 0 0 3 3 6 6 10 13 13 10 6 6 6 6 16 19 16 19 19 19 19 13 16 16 16 13 13 13 13 13 13 13 10 6 3 3 3
Height
5919 5921 5922 5922 5922 5923 5922 5922 5922 5922 5921 5920 5919 5918 5918 5916 5914 5913 5911 5910 5908 5906 5905 5903 5901 5899 5897 5895 5894 5892 5890 5888 5886 5885 5883 5881 5879 5878 5876 5874 5873 5871 5869 5868
5919 5920 5921 5921 5921 5922 5922 5922 5922 5921 5921 5919 5918 5918 5917 5915 5913 5912 5911 5909 5907 5905 5904 5902 5901 5899 5897 5895 5893 5891 5889 5887 5885 5884 5882 5880 5878 5876 5875 5873 5871 5869 5867 5866
5917 5919 5919 5920 5920 5921 5921 5921 5921 5920 5919 5919 5918 5917 5916 5915 5914 5912 5910 5909 5907 5905 5903 5901 5900 5898 5896 5894 5892 5890 5888 5886 5884 5882 5880 5878 5877 5875 5873 5871 5869 5868 5866 5864
5914 5916 5918 5919 5919 5920 5920 5920 5920 5918 5918 5917 5918 5917 5916 5914 5913 5911 5910 5908 5906 5904 5902 5901 5899 5897 5895 5893 5891 5889 5887 5885 5883 5881 5879 5877 5875 5874 5872 5869 5868 5866 5863 5862
5912 5914 5916 5917 5918 5918 5918 5918 5919 5918 5917 5916 5916 5915 5915 5913 5912 5910 5909 5907 5905 5902 5901 5899 5897 5896 5894 5891 5889 5888 5886 5884 5882 5880 5878 5876 5874 5872 5870 5868 5866 5863 5861 5859
5910 5912 5913 5915 5916 5916 5917 5917 5917 5917 5916 5915 5915 5914 5913 5911 5911 5909 5908 5906 5904 5902 5900 5898 5896 5894 5893 5890 5888 5886 5884 5882 5880 5878 5876 5874 5872 5870 5868 5866 5863 5861 5859 5857
5908 5909 5911 5913 5914 5914 5915 5916 5916 5915 5914 5914 5913 5911 5911 5910 5909 5907 5905 5903 5902 5900 5899 5897 5895 5893 5891 5889 5886 5884 5883 5880 5878 5875 5873 5871 5869 5867 5865 5863 5860 5859 5856 5854
5905 5907 5909 5910 5911 5912 5913 5913 5913 5913 5911 5911 5910 5909 5909 5908 5906 5905 5903 5901 5900 5898 5897 5895 5894 5891 5889 5887 5885 5883 5881 5878 5876 5874 5871 5869 5867 5864 5862 5860 5857 5856 5853 5851
5902 5905 5906 5907 5908 5909 5910 5910 5910 5910 5908 5907 5906 5907 5906 5905 5904 5903 5901 5899 5898 5896 5895 5893 5891 5889 5888 5885 5883 5881 5879 5876 5874 5872 5870 5867 5864 5862 5859 5857 5854 5852 5850 5847
5899 5901 5903 5904 5905 5906 5907 5907 5907 5907 5905 5904 5904 5904 5904 5902 5901 5900 5898 5896 5895 5894 5892 5891 5889 5887 5885 5883 5881 5879 5877 5874 5872 5869 5867 5864 5862 5859 5856 5854 5851 5849 5846 5844
5895 5897 5899 5900 5901 5902 5903 5903 5903 5903 5902 5902 5901 5903 5901 5899 5898 5897 5895 5894 5892 5891 5890 5888 5886 5884 5882 5881 5878 5876 5874 5871 5869 5866 5864 5861 5859 5856 5853 5850 5848 5845 5843 5841
5891 5893 5894 5896 5897 5898 5898 5899 5899 5900 5899 5898 5897 5900 5897 5896 5895 5893 5892 5891 5889 5888 5886 5885 5884 5882 5880 5878 5876 5873 5871 5869 5866 5864 5861 5859 5856 5853 5849 5847 5844 5842 5840 5837
5886 5888 5890 5891 5894 5894 5894 5895 5895 5895 5895 5894 5893 5896 5893 5892 5891 5890 5889 5887 5886 5885 5884 5882 5881 5879 5877 5875 5873 5870 5868 5866 5863 5861 5858 5855 5852 5849 5846 5843 5841 5838 5836 5833
5882 5883 5885 5887 5888 5889 5890 5890 5890 5891 5890 5889 5889 5890 5889 5888 5887 5887 5886 5884 5882 5881 5880 5879 5878 5876 5874 5872 5870 5867 5865 5862 5860 5857 5855 5852 5849 5846 5843 5840 5837 5835 5832 5829
5876 5878 5880 5881 5883 5883 5884 5885 5886 5886 5886 5885 5885 5885 5885 5884 5884 5883 5882 5880 5879 5878 5877 5875 5874 5872 5871 5868 5866 5863 5861 5858 5856 5854 5851 5848 5845 5842 5839 5836 5833 5831 5828 5826
5871 5873 5874 5876 5877 5878 5879 5880 5881 5881 5881 5880 5880 5881 5881 5880 5880 5878 5877 5876 5875 5874 5873 5872 5870 5869 5867 5865 5862 5860 5858 5855 5852 5850 5847 5844 5841 5838 5835 5832 5829 5826 5824 5822
5866 5868 5869 5871 5872 5873 5874 5876 5876 5876 5876 5876 5876 5877 5876 5876 5875 5874 5873 5872 5870 5869 5868 5867 5866 5865 5863 5861 5859 5856 5854 5851 5848 5846 5843 5840 5837 5834 5831 5828 5824 5822 5820 5817
5860 5862 5863 5865 5867 5867 5871 5870 5870 5871 5871 5871 5871 5871 5871 5871 5870 5869 5869 5867 5866 5865 5864 5863 5862 5861 5859 5857 5854 5852 5849 5847 5844 5842 5839 5836 5833 5830 5827 5823 5820 5818 5815 5813
5854 5856 5857 5858 5859 5861 5863 5864 5864 5864 5865 5865 5866 5866 5866 5865 5864 5864 5864 5863 5862 5861 5860 5858 5857 5856 5854 5853 5850 5848 5845 5843 5840 5837 5834 5831 5828 5825 5822 5819 5816 5813 5810 5807
5847 5849 5850 5851 5852 5854 5858 5858 5858 5859 5858 5859 5860 5860 5860 5860 5859 5859 5859 5858 5857 5856 5855 5853 5852 5851 5849 5848 5845 5843 5841 5838 5835 5832 5830 5826 5823 5820 5817 5814 5811 5808 5805 5802
5841 5841 5843 5844 5845 5847 5849 5850 5851 5853 5854 5854 5854 5854 5854 5854 5854 5854 5853 5852 5852 5850 5849 5848 5847 5846 5844 5842 5840 5838 5835 5833 5830 5828 5825 5822 5818 5815 5812 5809 5806 5803 5800 5797
5833 5834 5836 5837 5837 5841 5842 5843 5845 5845 5846 5847 5847 5848 5848 5848 5848 5847 5847 5846 5845 5844 5843 5841 5840 5839 5838 5836 5834 5832 5830 5827 5825 5822 5819 5816 5813 5810 5807 5804 5801 5797 5794 5791
5824 5827 5828 5830 5832 5833 5834 5835 5836 5837 5838 5839 5840 5841 5841 5841 5841 5840 5840 5839 5838 5836 5835 5834 5833 5832 5831 5830 5829 5827 5824 5821 5819 5816 5813 5811 5808 5805 5802 5799 5795 5792 5789 5786
5816 5818 5820 5821 5822 5824 5826 5827 5828 5829 5831 5831 5832 5833 5834 5834 5833 5833 5832 5831 5830 5829 5828 5827 5826 5825 5824 5823 5822 5820 5817 5815 5812 5810 5807 5804 5802 5799 5796 5793 5789 5786 5783 5780
5808 5810 5811 5813 5815 5816 5818 5819 5821 5822 5823 5824 5825 5825 5826 5826 5825 5825 5824 5823 5822 5821 5820 5820 5819 5818 5816 5815 5813 5811 5809 5807 5805 5803 5800 5798 5795 5792 5789 5786 5783 5779 5776 5773
5799 5801 5803 5805 5807 5809 5811 5812 5813 5814 5815 5815 5816 5817 5817 5817 5817 5816 5816 5816 5815 5814 5813 5812 5811 5809 5807 5806 5805 5804 5801 5800 5798 5796 5793 5791 5788 5785 5782 5779 5776 5772 5769 5766
Wind_Speed
10 8 5 4 2 1 3 5 6 7 7 10 12 12 11 11 10 10 11 10 10 10 10 11 10 10 10 9 9 10 9 9 10 10 9 9 8 9 9 9 10 9 8 8
10 8 6 6 4 1 2 4 5 7 8 10 12 12 12 11 10 10 10 9 9 9 9 10 10 10 10 10 10 9 9 9 10 9 9 9 9 9 10 10 10 9 9 9
10 7 6 6 4 3 4 5 6 7 8 8 11 12 12 12 10 10 11 9 9 10 10 9 9 10 10 10 10 10 10 10 10 10 10 10 10 10 10 10 10 10 10 9
11 9 6 6 5 5 6 5 6 8 8 10 12 12 11 10 12 11 10 10 9 9 10 10 9 9 10 10 11 11 10 10 10 10 10 10 10 10 10 10 10 10 10 10
13 10 9 8 6 6 5 6 7 8 9 9 11 12 11 10 11 11 10 10 10 10 10 10 10 10 11 11 11 11 10 10 10 10 10 10 10 10 11 11 11 11 11 10
13 12 11 10 9 8 7 8 10 10 10 10 10 10 10 11 11 11 10 9 9 10 11 11 11 11 11 11 10 10 10 11 11 11 11 10 11 11 12 12 12 12 12 12
13 12 11 11 11 11 10 9 11 12 11 11 10 10 9 9 11 12 10 10 8 9 11 11 11 11 11 11 10 10 11 11 12 12 11 11 12 12 13 13 13 13 14 13
14 12 11 10 11 11 10 10 11 13 12 12 11 10 9 9 10 10 10 10 10 11 11 11 12 12 12 12 12 12 12 12 13 13 13 13 13 14 14 14 14 14 14 14
14 13 11 11 11 10 11 11 11 13 14 14 13 11 10 10 11 11 11 11 11 11 11 12 11 11 12 13 13 13 12 13 13 14 14 14 14 14 15 15 16 15 14 14
17 15 13 13 14 13 12 12 12 13 14 15 14 12 13 13 12 13 12 12 12 11 11 12 12 13 13 14 14 14 13 14 14 14 15 15 14 14 15 15 15 15 15 15
19 18 15 15 16 15 14 14 14 15 15 16 16 15 13 14 15 15 15 14 12 12 11 12 13 14 14 14 15 15 15 14 15 15 16 16 15 16 16 15 15 15 15 15
19 19 17 16 16 16 16 15 16 17 17 18 19 18 15 16 15 15 15 14 14 14 13 12 14 15 15 15 15 15 15 15 16 16 16 17 17 17 16 15 15 15 16 15
20 21 20 19 19 18 18 17 16 17 18 19 20 18 16 15 15 15 16 15 14 14 15 14 14 15 15 16 17 16 16 17 17 17 17 18 18 18 17 15 15 16 16 17
21 22 22 21 20 20 20 19 18 19 20 20 19 18 16 15 15 15 16 16 15 14 15 15 15 16 16 17 18 17 17 18 17 17 18 18 18 18 17 16 17 17 18 18
22 23 23 22 22 21 21 22 22 21 20 19 17 17 16 16 16 16 16 16 16 16 16 16 16 17 18 18 19 18 18 18 17 17 17 18 18 18 18 18 18 18 19 18
25 24 24 24 24 24 25 24 24 23 21 20 19 18 16 17 17 17 17 17 17 16 16 16 17 17 18 19 19 19 18 18 17 17 18 18 19 19 19 19 18 19 19 19
28 27 27 27 26 25 26 24 24 23 22 21 20 20 18 18 18 19 19 19 18 17 16 16 17 17 18 19 19 19 18 18 17 17 18 19 19 20 20 20 19 20 20 20
29 29 29 29 28 28 25 24 24 24 23 23 22 20 19 19 19 20 20 20 20 19 17 17 17 18 18 19 20 20 19 19 19 18 18 19 19 19 19 20 21 21 21 21
29 29 30 30 29 28 25 24 24 24 24 24 23 22 21 21 21 21 21 21 22 20 20 20 18 18 18 19 20 20 19 19 19 20 20 20 20 20 20 21 21 22 22 21
29 29 30 30 30 29 26 26 26 26 25 23 24 23 23 23 22 22 22 22 22 22 21 21 19 18 19 19 20 20 20 20 20 20 21 21 20 21 21 22 22 22 22 21
30 30 30 30 30 30 27 27 26 26 26 24 24 24 24 24 24 23 22 22 23 23 22 22 21 20 20 20 20 21 21 21 21 21 22 22 22 22 22 23 23 23 23 22
31 31 31 30 31 30 28 28 27 27 27 26 25 25 25 25 25 25 24 24 25 25 24 23 21 20 20 20 21 22 22 22 22 22 23 23 23 23 23 24 24 24 23 23
33 33 32 31 31 30 29 29 29 29 28 27 27 26 26 26 26 26 26 26 26 26 24 24 22 21 21 21 22 23 23 23 24 24 23 24 24 24 24 24 24 24 24 24
32 32 32 31 31 31 31 30 30 30 29 28 27 28 27 26 26 27 27 26 25 25 26 25 23 23 23 23 24 24 23 24 24 24 24 24 25 25 25 26 25 25 25 25
33 33 33 33 33 32 31 31 30 30 30 29 29 29 29 27 28 28 27 27 27 27 27 26 25 24 24 24 24 24 24 24 25 25 25 25 25 26 26 26 26 26 26 27
32 33 34 34 34 33 32 31 31 31 31 30 30 29 28 29 29 28 28 28 28 28 28 26 26 26 25 24 24 24 25 25 26 26 26 26 26 27 28 28 28 28 28 28
Wind_Direction
175 165 164 150 127 358 346 355 0 359 355 355 356 359 2 6 13 15 12 11 12 13 12 13 9 8 7 8 7 5 4 359 356 355 357 355 355 354 350 345 340 335 326 316
186 176 166 171 209 293 328 339 340 343 344 343 344 348 353 1 10 9 7 8 8 9 8 9 11 8 6 7 7 5 4 0 358 355 353 354 352 350 348 344 339 333 325 318
193 186 178 191 206 265 294 300 311 318 329 334 330 332 343 360 2 5 3 1 5 7 4 3 3 2 0 360 0 1 3 2 360 356 352 349 345 343 341 337 335 332 325 321
198 198 200 204 213 244 258 278 300 314 312 317 322 322 336 345 347 351 355 354 354 357 0 359 355 353 354 355 357 355 354 354 352 351 350 346 342 337 336 336 334 331 327 321
202 206 204 211 216 235 247 268 285 300 300 304 318 319 329 332 344 351 351 350 350 354 356 353 349 351 348 351 352 349 347 347 344 342 341 338 337 335 335 333 331 331 329 322
207 206 211 222 229 237 248 264 270 275 283 294 310 320 327 337 348 349 344 341 344 351 351 349 348 346 344 345 344 344 342 340 340 339 338 334 332 330 329 328 326 324 323 321
213 217 220 228 234 230 238 255 266 270 277 293 300 310 322 336 339 344 345 345 347 345 345 341 342 342 340 338 337 338 337 333 333 334 334 329 325 324 322 321 320 319 318 317
215 221 228 236 244 241 241 259 272 275 282 287 294 309 316 320 325 336 341 345 348 345 341 339 338 338 337 337 339 336 335 334 333 331 329 328 326 324 321 319 317 315 314 315
222 225 230 237 236 242 246 255 272 274 277 285 295 308 310 309 317 325 336 338 334 340 339 338 339 342 339 338 339 339 338 336 334 334 331 328 325 323 322 321 320 318 317 316
231 233 233 236 237 237 244 251 260 270 275 281 286 295 305 308 310 320 325 331 334 334 335 334 336 338 336 336 335 337 336 338 338 335 331 328 326 326 326 324 325 323 321 320
232 234 234 237 238 241 241 247 254 262 271 277 282 288 298 305 313 312 315 323 323 328 328 329 333 333 333 333 333 333 333 335 336 335 334 330 330 328 325 323 322 322 319 318
230 233 233 234 242 249 247 252 259 265 271 274 279 284 290 297 304 307 316 322 324 320 318 322 324 326 328 330 331 330 331 332 332 333 332 330 327 326 323 321 320 319 317 315
229 232 234 235 239 242 245 249 259 265 266 269 276 283 286 291 297 303 310 315 315 318 317 319 321 323 324 326 329 326 327 328 328 329 329 328 326 325 321 317 316 315 313 311
232 234 238 241 241 242 247 251 256 263 266 270 272 278 281 287 291 299 304 311 311 311 315 317 319 321 323 323 325 325 324 324 324 325 327 328 326 325 322 317 314 313 311 310
232 236 240 243 242 243 250 252 253 260 264 270 274 279 285 289 291 294 299 304 307 308 310 312 313 317 320 321 322 321 322 321 321 321 323 324 323 322 323 318 315 314 312 311
233 237 239 241 244 246 249 252 256 261 264 267 273 278 287 293 290 292 297 298 298 301 306 308 308 311 315 317 319 322 321 318 317 317 320 321 322 322 323 320 317 315 314 312
234 239 241 243 246 249 250 252 255 258 262 266 271 276 282 286 288 289 294 298 300 298 301 305 307 310 313 314 315 317 318 318 315 315 316 318 320 322 322 322 322 321 320 317
238 241 243 244 246 247 252 252 253 255 259 263 265 271 277 282 283 287 292 297 300 299 299 303 305 306 309 312 314 317 317 317 315 314 315 319 320 323 324 322 321 321 319 317
241 241 244 246 247 251 253 253 253 255 257 258 261 266 275 281 282 284 291 294 297 296 297 299 301 301 304 307 311 314 316 316 316 316 316 318 319 321 321 320 319 318 317 316
239 243 245 248 251 253 254 255 255 256 258 259 264 269 273 278 279 284 289 290 291 293 294 295 295 296 300 304 308 311 312 314 314 315 316 317 317 317 317 318 317 316 315 313
239 242 245 247 251 253 255 258 259 259 261 263 265 267 270 273 277 282 284 285 286 288 288 291 292 291 296 300 304 306 307 309 311 312 313 314 315 317 317 317 316 315 314 313
239 242 245 247 251 254 254 256 258 262 263 263 265 267 270 272 276 278 281 284 284 284 284 286 288 289 293 296 300 302 303 305 307 309 311 312 313 314 315 316 316 316 314 313
241 244 246 248 250 253 254 256 260 261 262 263 266 269 271 272 274 277 279 280 281 280 281 284 286 290 292 294 296 298 300 303 305 306 308 310 312 312 312 314 314 314 313 312
241 244 245 247 250 252 254 257 260 262 265 265 268 270 270 272 274 277 279 279 279 281 282 285 286 289 292 292 294 295 296 298 300 303 305 308 309 310 311 311 312 312 311 311
241 242 244 245 249 252 254 256 258 261 264 266 267 270 272 274 275 277 277 279 279 282 284 283 283 285 286 288 290 292 294 297 299 301 303 305 307 307 308 308 308 309 309 309
241 243 244 245 248 251 255 258 259 261 264 267 268 268 272 274 276 276 278 277 279 282 281 281 282 283 285 285 289 290 294 296 297 300 303 305 306 307 306 305 305 306 307 307